JST762 YMML-YBBN

Flight info

Callsign JST762
Flight time 0h 49m
Altitude 35000
Route ML H66 LAGOB H252 BN
Aircraft A321/M-SDE3FGHIRWY/LB1

Departure

Time 2026-05-04 02:13
Airport Melbourne Airport (YMML)

Arrival

Time 2026-05-04 03:02
Airport Brisbane International Airport (YBBN)
Time Latitude Longitude Altitude Speed Heading
2026-05-04 02:08 -37.67207 144.84561 386 ft 7 kts 262°
2026-05-04 02:09 -37.67207 144.84488 385 ft 9 kts 282°
2026-05-04 02:09 -37.67199 144.84400 384 ft 11 kts 267°
2026-05-04 02:09 -37.67225 144.84296 382 ft 14 kts 220°
2026-05-04 02:09 -37.67327 144.84293 379 ft 17 kts 172°
2026-05-04 02:10 -37.67451 144.84315 376 ft 19 kts 172°
2026-05-04 02:10 -37.67595 144.84340 372 ft 22 kts 171°
2026-05-04 02:10 -37.67701 144.84364 369 ft 14 kts 169°
2026-05-04 02:10 -37.67807 144.84355 365 ft 18 kts 207°
2026-05-04 02:11 -37.67862 144.84215 360 ft 17 kts 261°
2026-05-04 02:11 -37.67881 144.84062 360 ft 18 kts 261°
2026-05-04 02:11 -37.67887 144.83983 355 ft 3 kts 292°
2026-05-04 02:11 -37.67872 144.83973 379 ft 2 kts 339°
2026-05-04 02:12 -37.67850 144.83966 345 ft 9 kts 348°
2026-05-04 02:12 -37.67585 144.83915 368 ft 72 kts 352°
2026-05-04 02:12 -37.66895 144.83786 391 ft 126 kts 351°
2026-05-04 02:12 -37.65940 144.83613 809 ft 136 kts 354°
2026-05-04 02:13 -37.65015 144.83432 1595 ft 133 kts 351°
2026-05-04 02:13 -37.64102 144.83251 2305 ft 138 kts 351°
2026-05-04 02:13 -37.63096 144.83060 2723 ft 159 kts 350°
2026-05-04 02:13 -37.61927 144.82833 3150 ft 181 kts 349°
2026-05-04 02:14 -37.60590 144.82573 3526 ft 208 kts 349°
2026-05-04 02:14 -37.59072 144.82502 4210 ft 229 kts
2026-05-04 02:14 -37.57536 144.83230 5112 ft 242 kts 19°
2026-05-04 02:14 -37.56003 144.84162 5879 ft 247 kts 19°
2026-05-04 02:15 -37.54445 144.85112 6609 ft 250 kts 18°
2026-05-04 02:15 -37.52861 144.86076 7327 ft 256 kts 19°
2026-05-04 02:15 -37.51239 144.87059 7989 ft 262 kts 19°
2026-05-04 02:15 -37.49578 144.88066 8639 ft 268 kts 19°
2026-05-04 02:16 -37.47877 144.89095 9312 ft 274 kts 19°
2026-05-04 02:16 -37.46148 144.90144 9966 ft 279 kts 19°
2026-05-04 02:16 -37.44354 144.91236 10308 ft 296 kts 21°
2026-05-04 02:16 -37.42526 144.92667 10444 ft 324 kts 30°
2026-05-04 02:17 -37.40643 144.94399 10586 ft 346 kts 31°
2026-05-04 02:17 -37.38659 144.96225 10941 ft 358 kts 31°
2026-05-04 02:17 -37.36634 144.98093 11545 ft 363 kts 31°
2026-05-04 02:17 -37.34593 144.99980 12190 ft 366 kts 31°
2026-05-04 02:18 -37.32530 145.01885 12826 ft 370 kts 31°
2026-05-04 02:18 -37.30443 145.03808 13457 ft 374 kts 31°
2026-05-04 02:18 -37.28334 145.05746 14048 ft 378 kts 31°
2026-05-04 02:18 -37.26204 145.07702 14655 ft 380 kts 31°
2026-05-04 02:19 -37.24062 145.09671 15272 ft 383 kts 30°
2026-05-04 02:19 -37.21908 145.11650 15905 ft 385 kts 30°
2026-05-04 02:19 -37.19744 145.13633 16550 ft 387 kts 30°
2026-05-04 02:19 -37.17559 145.15633 17130 ft 389 kts 30°
2026-05-04 02:20 -37.15371 145.17633 17774 ft 391 kts 30°
2026-05-04 02:20 -37.13165 145.19645 18369 ft 393 kts 30°
2026-05-04 02:20 -37.10945 145.21670 18895 ft 396 kts 30°
2026-05-04 02:20 -37.08744 145.23678 19414 ft 398 kts 29°
2026-05-04 02:21 -37.06512 145.25746 19917 ft 401 kts 31°
2026-05-04 02:21 -37.04314 145.27925 20421 ft 405 kts 32°
2026-05-04 02:21 -37.02145 145.30182 20917 ft 407 kts 33°
2026-05-04 02:21 -36.99979 145.32485 21374 ft 410 kts 33°
2026-05-04 02:22 -36.97804 145.34802 21811 ft 411 kts 33°
2026-05-04 02:22 -36.95613 145.37116 22259 ft 413 kts 33°
2026-05-04 02:22 -36.93402 145.39426 22701 ft 415 kts 32°
2026-05-04 02:22 -36.91172 145.41732 23129 ft 417 kts 32°
2026-05-04 02:23 -36.88925 145.44040 23550 ft 419 kts 32°
2026-05-04 02:23 -36.86664 145.46358 23902 ft 422 kts 32°
2026-05-04 02:23 -36.84396 145.48681 24282 ft 423 kts 32°
2026-05-04 02:23 -36.82112 145.51019 24675 ft 425 kts 32°
2026-05-04 02:24 -36.79819 145.53366 25022 ft 427 kts 32°
2026-05-04 02:24 -36.77518 145.55725 25362 ft 429 kts 32°
2026-05-04 02:24 -36.75203 145.58100 25708 ft 432 kts 32°
2026-05-04 02:24 -36.72878 145.60486 26038 ft 434 kts 32°
2026-05-04 02:25 -36.70542 145.62880 26376 ft 436 kts 31°
2026-05-04 02:25 -36.68200 145.65277 26703 ft 438 kts 31°
2026-05-04 02:25 -36.65842 145.67689 27043 ft 440 kts 31°
2026-05-04 02:25 -36.63474 145.70110 27359 ft 441 kts 31°
2026-05-04 02:26 -36.61090 145.72539 27643 ft 444 kts 31°
2026-05-04 02:26 -36.58694 145.74979 27970 ft 446 kts 31°
2026-05-04 02:26 -36.56288 145.77427 28289 ft 448 kts 31°
2026-05-04 02:26 -36.53866 145.79887 28588 ft 450 kts 31°
2026-05-04 02:27 -36.51448 145.82345 29017 ft 448 kts 31°
2026-05-04 02:27 -36.49041 145.84790 29474 ft 447 kts 31°
2026-05-04 02:27 -36.46632 145.87235 29891 ft 446 kts 31°
2026-05-04 02:27 -36.44234 145.89669 30265 ft 446 kts 31°
2026-05-04 02:28 -36.42430 145.91500 30519 ft 445 kts 31°
2026-05-04 02:28 -36.40033 145.93931 30852 ft 445 kts 31°
2026-05-04 02:28 -36.37665 145.96329 31165 ft 444 kts 31°
2026-05-04 02:28 -36.35271 145.98753 31502 ft 444 kts 30°
2026-05-04 02:29 -36.32844 146.01203 31845 ft 444 kts 30°
2026-05-04 02:29 -36.30454 146.03614 32125 ft 444 kts 30°
2026-05-04 02:29 -36.28086 146.05999 32404 ft 444 kts 30°
2026-05-04 02:29 -36.25691 146.08410 32729 ft 444 kts 30°
2026-05-04 02:30 -36.23300 146.10819 33049 ft 443 kts 30°
2026-05-04 02:30 -36.20911 146.13228 33370 ft 443 kts 30°
2026-05-04 02:30 -36.18520 146.15636 33685 ft 442 kts 30°
2026-05-04 02:30 -36.16136 146.18032 33963 ft 442 kts 30°
2026-05-04 02:31 -36.13748 146.20427 34195 ft 442 kts 30°
2026-05-04 02:31 -36.11354 146.22822 34416 ft 443 kts 30°
2026-05-04 02:31 -36.08952 146.25218 34642 ft 443 kts 30°
2026-05-04 02:31 -36.06551 146.27613 34862 ft 444 kts 30°
2026-05-04 02:32 -36.04145 146.30014 34992 ft 445 kts 30°
2026-05-04 02:32 -36.01742 146.32416 35013 ft 445 kts 30°
2026-05-04 02:32 -35.96938 146.37226 35027 ft 444 kts 30°
2026-05-04 02:33 -35.92139 146.42019 35027 ft 444 kts 30°
2026-05-04 02:33 -35.87333 146.46796 35027 ft 444 kts 30°
2026-05-04 02:34 -35.82523 146.51573 35017 ft 444 kts 29°
2026-05-04 02:34 -35.77701 146.56353 35028 ft 445 kts 29°
2026-05-04 02:35 -35.72875 146.61137 35033 ft 445 kts 29°
2026-05-04 02:35 -29.09748 153.05835 34344 ft 437 kts
2026-05-04 02:35 -29.06812 153.06409 34701 ft 419 kts 352°
2026-05-04 02:36 -29.03940 153.06270 34915 ft 412 kts 346°
2026-05-04 02:36 -29.01081 153.06024 35117 ft 413 kts 346°
2026-05-04 02:36 -28.95542 153.05503 35189 ft 425 kts 346°
2026-05-04 02:37 -28.90573 153.05041 35190 ft 437 kts 347°
2026-05-04 02:37 -28.86407 153.05153 35189 ft 460 kts 359°
2026-05-04 02:37 -28.84307 153.05581 35187 ft 468 kts
2026-05-04 02:38 -28.77934 153.07275 35188 ft 471 kts
2026-05-04 02:38 -28.71548 153.08930 35185 ft 471 kts
2026-05-04 02:39 -28.65174 153.10733 35126 ft 479 kts 13°
2026-05-04 02:39 -28.62159 153.12505 34344 ft 500 kts 28°
2026-05-04 02:39 -28.59308 153.14834 33298 ft 510 kts 31°
2026-05-04 02:40 -28.56455 153.17248 32138 ft 509 kts 32°
2026-05-04 02:40 -28.53623 153.19684 30450 ft 511 kts 33°
2026-05-04 02:40 -28.50784 153.22131 28458 ft 513 kts 33°
2026-05-04 02:40 -28.47930 153.24569 26783 ft 509 kts 33°
2026-05-04 02:41 -28.45142 153.26920 26165 ft 493 kts 33°
2026-05-04 02:41 -28.42397 153.29214 25501 ft 488 kts 33°
2026-05-04 02:41 -28.39662 153.31483 24804 ft 485 kts 32°
2026-05-04 02:41 -28.36936 153.33740 24117 ft 483 kts 33°
2026-05-04 02:42 -28.34226 153.35987 23369 ft 481 kts 33°
2026-05-04 02:42 -28.31536 153.38222 22667 ft 478 kts 33°
2026-05-04 02:42 -28.28865 153.40445 21980 ft 474 kts 33°
2026-05-04 02:42 -28.26219 153.42651 21315 ft 469 kts 34°
2026-05-04 02:43 -28.23607 153.44824 20669 ft 463 kts 34°
2026-05-04 02:43 -28.21049 153.46925 20047 ft 457 kts 31°
2026-05-04 02:43 -28.18300 153.48641 19521 ft 446 kts 21°
2026-05-04 02:43 -28.15414 153.49787 18994 ft 436 kts 12°
2026-05-04 02:44 -28.12462 153.50366 18500 ft 426 kts
2026-05-04 02:44 -28.09526 153.50449 17975 ft 419 kts 358°
2026-05-04 02:44 -28.06633 153.50453 17487 ft 413 kts 358°
2026-05-04 02:44 -28.03781 153.50463 17005 ft 408 kts 358°
2026-05-04 02:45 -28.00967 153.50428 16536 ft 400 kts 352°
2026-05-04 02:45 -27.98287 153.49734 16075 ft 393 kts 341°
2026-05-04 02:45 -27.95692 153.48803 15603 ft 390 kts 340°
2026-05-04 02:45 -27.93118 153.47863 15167 ft 388 kts 341°
2026-05-04 02:46 -27.90632 153.46719 14722 ft 384 kts 331°
2026-05-04 02:46 -27.88284 153.45297 14283 ft 382 kts 331°
2026-05-04 02:46 -27.85893 153.44016 13932 ft 381 kts 341°
2026-05-04 02:46 -27.83302 153.43388 13679 ft 381 kts 350°
2026-05-04 02:47 -27.80691 153.42882 13418 ft 380 kts 349°
2026-05-04 02:47 -27.78087 153.42371 13162 ft 379 kts 349°
2026-05-04 02:47 -27.75498 153.41852 12910 ft 378 kts 349°
2026-05-04 02:47 -27.72914 153.41327 12660 ft 377 kts 349°
2026-05-04 02:48 -27.70336 153.40798 12413 ft 375 kts 349°
2026-05-04 02:48 -27.67775 153.40266 12160 ft 374 kts 349°
2026-05-04 02:48 -27.65214 153.39736 11916 ft 373 kts 350°
2026-05-04 02:48 -27.62633 153.39497 11646 ft 372 kts
2026-05-04 02:49 -27.60039 153.39586 11005 ft 372 kts
2026-05-04 02:49 -27.57508 153.39702 10871 ft 355 kts
2026-05-04 02:49 -27.55094 153.39821 10748 ft 340 kts
2026-05-04 02:49 -27.52776 153.39937 10630 ft 327 kts
2026-05-04 02:50 -27.50551 153.40048 10513 ft 314 kts
2026-05-04 02:50 -27.48406 153.40151 10350 ft 304 kts
2026-05-04 02:50 -27.46308 153.40249 10091 ft 299 kts
2026-05-04 02:50 -27.44244 153.40346 9870 ft 296 kts
2026-05-04 02:51 -27.42199 153.40440 9630 ft 294 kts
2026-05-04 02:51 -27.40157 153.40534 9400 ft 293 kts
2026-05-04 02:51 -27.38119 153.40627 9178 ft 293 kts
2026-05-04 02:51 -27.36086 153.40721 8939 ft 292 kts
2026-05-04 02:52 -27.34058 153.40815 8638 ft 290 kts
2026-05-04 02:52 -27.32049 153.40908 8334 ft 288 kts
2026-05-04 02:52 -27.30047 153.40999 8048 ft 287 kts
2026-05-04 02:52 -27.28054 153.41090 7761 ft 286 kts
2026-05-04 02:53 -27.26070 153.41179 7473 ft 285 kts
2026-05-04 02:53 -27.24094 153.41266 7192 ft 284 kts
2026-05-04 02:53 -27.22152 153.41351 6900 ft 282 kts
2026-05-04 02:53 -27.20200 153.41122 6621 ft 284 kts 347°
2026-05-04 02:54 -27.18381 153.40267 6312 ft 285 kts 330°
2026-05-04 02:54 -27.16816 153.38916 6001 ft 285 kts 321°
2026-05-04 02:54 -27.15327 153.37447 5566 ft 288 kts 313°
2026-05-04 02:54 -27.14203 153.35630 5447 ft 279 kts 295°
2026-05-04 02:55 -27.13456 153.31652 5380 ft 247 kts 265°
2026-05-04 02:55 -27.13724 153.29808 5222 ft 235 kts 251°
2026-05-04 02:55 -27.14336 153.28142 5035 ft 228 kts 238°
2026-05-04 02:56 -27.15240 153.26705 4805 ft 225 kts 224°
2026-05-04 02:56 -27.16394 153.25542 4537 ft 222 kts 211°
2026-05-04 02:56 -27.17717 153.24695 4256 ft 216 kts 202°
2026-05-04 02:56 -27.19052 153.23935 3994 ft 211 kts 202°
2026-05-04 02:57 -27.20328 153.23207 3721 ft 200 kts 202°
2026-05-04 02:57 -27.21541 153.22515 3451 ft 190 kts 202°
2026-05-04 02:57 -27.22693 153.21859 3197 ft 181 kts 202°
2026-05-04 02:57 -27.23790 153.21234 2975 ft 173 kts 202°
2026-05-04 02:58 -27.24841 153.20635 2754 ft 167 kts 202°
2026-05-04 02:58 -27.25854 153.20057 2555 ft 162 kts 201°
2026-05-04 02:58 -27.26850 153.19490 2339 ft 159 kts 201°
2026-05-04 02:58 -27.27828 153.18933 2123 ft 157 kts 201°
2026-05-04 02:59 -27.28799 153.18379 1923 ft 154 kts 201°
2026-05-04 02:59 -27.29741 153.17841 1724 ft 148 kts 201°
2026-05-04 02:59 -27.30644 153.17326 1522 ft 143 kts 199°
2026-05-04 02:59 -27.31527 153.16822 1332 ft 142 kts 199°
2026-05-04 03:00 -27.32404 153.16322 1157 ft 140 kts 199°
2026-05-04 03:00 -27.33267 153.15830 978 ft 141 kts 200°
2026-05-04 03:00 -27.34140 153.15334 777 ft 140 kts 201°
2026-05-04 03:00 -27.35019 153.14821 570 ft 144 kts 204°
2026-05-04 03:01 -27.35913 153.14309 439 ft 144 kts 201°
2026-05-04 03:01 -27.36813 153.13805 217 ft 145 kts 203°
2026-05-04 03:01 -27.37700 153.13291 49 ft 143 kts 202°
2026-05-04 03:01 -27.38496 153.12841 23 ft 104 kts 206°
2026-05-04 03:02 -27.38888 153.12608 21 ft 27 kts 231°
2026-05-04 03:02 -27.39007 153.12453 21 ft 26 kts 233°
2026-05-04 03:02 -27.39058 153.12367 23 ft 0 kts 237°
2026-05-04 03:03 -27.39061 153.12361 21 ft 4 kts 237°
2026-05-04 03:03 -27.39103 153.12290 21 ft 18 kts 236°
2026-05-04 03:03 -27.39121 153.12160 23 ft 18 kts 314°
2026-05-04 03:03 -27.39006 153.12184 21 ft 18 kts 25°
2026-05-04 03:04 -27.38889 153.12253 21 ft 20 kts 26°
2026-05-04 03:04 -27.38763 153.12323 24 ft 21 kts 27°
2026-05-04 03:04 -27.38630 153.12400 23 ft 22 kts 27°
2026-05-04 03:04 -27.38506 153.12468 21 ft 15 kts 14°
2026-05-04 03:05 -27.38438 153.12397 22 ft 15 kts 280°
2026-05-04 03:05 -27.38434 153.12307 21 ft 11 kts 264°
2026-05-04 03:05 -27.38476 153.12235 22 ft 11 kts 225°
2026-05-04 03:05 -27.38495 153.12186 21 ft 6 kts 283°
2026-05-04 03:06 -27.38482 153.12153 22 ft 3 kts 294°
2026-05-04 03:06 -27.38472 153.12132 21 ft 1 kts 298°
2026-05-04 03:06 -27.38472 153.12131 21 ft 0 kts 298°